| time (UTC) | temp C | wind direction | speed KPH | gust KPH | rain 1hr cm | rain 24hr cm | rain mn cm | humidity % | barometer mb |
| 20260507203013 | 20 | 276 | 12.9 | 17.7 | 0.00 | 0.00 | 0.00 | 67 | 1011.9 |
| 20260507201511 | 21 | 309 | 8.0 | 16.1 | 0.00 | 0.00 | 0.00 | 67 | 1012.1 |
| 20260507200017 | 21 | 302 | 3.2 | 16.1 | 0.00 | 0.00 | 0.00 | 67 | 1012.1 |
| 20260507194507 | 21 | 340 | 3.2 | 16.1 | 0.00 | 0.00 | 0.00 | 67 | 1012.3 |
| 20260507193007 | 20 | 59 | 6.4 | 12.9 | 0.00 | 0.00 | 0.00 | 67 | 1012.5 |
| 20260507191507 | 21 | 296 | 6.4 | 17.7 | 0.00 | 0.00 | 0.00 | 67 | 1012.6 |
| 20260507190010 | 20 | 297 | 6.4 | 16.1 | 0.00 | 0.00 | 0.00 | 67 | 1012.8 |
| 20260507184502 | 20 | 313 | 4.8 | 16.1 | 0.00 | 0.00 | 0.00 | 67 | 1012.9 |
| 20260507183101 | 20 | 332 | 4.8 | 16.1 | 0.00 | 0.00 | 0.00 | 67 | 1013.0 |
| 20260507181557 | 20 | 281 | 4.8 | 14.5 | 0.00 | 0.00 | 0.00 | 67 | 1013.1 |
| 20260507180101 | 19 | 310 | 8.0 | 14.5 | 0.00 | 0.00 | 0.00 | 67 | 1012.9 |
| 20260507174552 | 19 | 261 | 4.8 | 16.1 | 0.00 | 0.00 | 0.00 | 68 | 1013.1 |
| 20260507173054 | 19 | 321 | 8.0 | 16.1 | 0.00 | 0.00 | 0.00 | 68 | 1013.0 |
| 20260507171549 | 19 | 360 | 6.4 | 16.1 | 0.00 | 0.00 | 0.00 | 68 | 1013.1 |
| 20260507170046 | 19 | 300 | 6.4 | 17.7 | 0.00 | 0.00 | 0.00 | 68 | 1012.9 |
| 20260507164540 | 18 | 324 | 9.7 | 17.7 | 0.00 | 0.00 | 0.00 | 68 | 1013.0 |
| 20260507163035 | 18 | 360 | 8.0 | 14.5 | 0.00 | 0.00 | 0.00 | 68 | 1013.1 |
| 20260507161531 | 18 | 321 | 6.4 | 14.5 | 0.00 | 0.00 | 0.00 | 68 | 1013.0 |
| 20260507160026 | 18 | 313 | 4.8 | 14.5 | 0.00 | 0.00 | 0.00 | 68 | 1013.1 |
| 20260507154523 | 18 | 313 | 6.4 | 12.9 | 0.00 | 0.00 | 0.00 | 67 | 1013.1 |
| 20260507153018 | 18 | 323 | 6.4 | 11.3 | 0.00 | 0.00 | 0.00 | 68 | 1013.1 |
| 20260507151516 | 18 | 309 | 6.4 | 11.3 | 0.00 | 0.00 | 0.00 | 67 | 1013.0 |
| 20260507150012 | 18 | 311 | 1.6 | 6.4 | 0.00 | 0.00 | 0.00 | 67 | 1012.9 |
| 20260507144507 | 18 | 5 | 1.6 | 4.8 | 0.00 | 0.00 | 0.00 | 67 | 1012.9 |
| 20260507143004 | 18 | 9 | 0.0 | 4.8 | 0.00 | 0.00 | 0.00 | 64 | 1012.8 |
| 20260507141502 | 17 | 15 | 1.6 | 4.8 | 0.00 | 0.00 | 0.00 | 55 | 1012.7 |
| 20260507140122 | 16 | 193 | 0.0 | 3.2 | 0.00 | 0.00 | 0.00 | 53 | 1012.7 |
| 20260507134558 | 15 | 193 | 0.0 | 1.6 | 0.00 | 0.00 | 0.00 | 53 | 1012.6 |
| 20260507133056 | 14 | 193 | 0.0 | 1.6 | 0.00 | 0.00 | 0.00 | 57 | 1012.3 |
| 20260507131602 | 15 | 193 | 0.0 | 1.6 | 0.00 | 0.00 | 0.00 | 57 | 1012.2 |
| 20260507130052 | 16 | 193 | 0.0 | 3.2 | 0.00 | 0.00 | 0.00 | 54 | 1012.2 |
| 20260507124602 | 16 | 193 | 1.6 | 4.8 | 0.00 | 0.00 | 0.00 | 56 | 1012.0 |
| 20260507123054 | 16 | 193 | 0.0 | 0.0 | 0.00 | 0.00 | 0.00 | 56 | 1012.0 |
| 20260507121547 | 16 | 193 | 0.0 | 0.0 | 0.00 | 0.00 | 0.00 | 57 | 1012.0 |
| 20260507120045 | 16 | 193 | 1.6 | 3.2 | 0.00 | 0.00 | 0.00 | 57 | 1012.1 |
| 20260507114545 | 16 | 193 | 0.0 | 3.2 | 0.00 | 0.00 | 0.00 | 58 | 1011.9 |
| 20260507113042 | 16 | 193 | 3.2 | 6.4 | 0.00 | 0.00 | 0.00 | 57 | 1011.9 |
| 20260507111543 | 16 | 16 | 0.0 | 0.0 | 0.00 | 0.00 | 0.00 | 61 | 1011.4 |
| 20260507110037 | 16 | 16 | 0.0 | 0.0 | 0.00 | 0.00 | 0.00 | 60 | 1011.3 |
| 20260507104539 | 16 | 16 | 0.0 | 0.0 | 0.00 | 0.00 | 0.00 | 62 | 1011.4 |
| 20260507103036 | 16 | 16 | 0.0 | 0.0 | 0.00 | 0.00 | 0.00 | 63 | 1011.5 |
| 20260507101543 | 16 | 16 | 0.0 | 3.2 | 0.00 | 0.00 | 0.00 | 61 | 1011.4 |
| 20260507100036 | 16 | 16 | 1.6 | 4.8 | 0.00 | 0.00 | 0.00 | 61 | 1011.4 |
| 20260507094533 | 16 | 16 | 0.0 | 1.6 | 0.00 | 0.00 | 0.00 | 61 | 1011.3 |
| 20260507093037 | 16 | 16 | 0.0 | 0.0 | 0.00 | 0.00 | 0.00 | 64 | 1011.3 |
| 20260507091529 | 16 | 16 | 0.0 | 1.6 | 0.00 | 0.00 | 0.00 | 65 | 1011.4 |
| 20260507090031 | 16 | 16 | 0.0 | 1.6 | 0.00 | 0.00 | 0.00 | 63 | 1011.3 |
| 20260507084525 | 17 | 16 | 0.0 | 1.6 | 0.00 | 0.00 | 0.00 | 62 | 1011.6 |
| 20260507083035 | 17 | 16 | 0.0 | 0.0 | 0.00 | 0.00 | 0.00 | 62 | 1011.6 |
| 20260507081527 | 16 | 16 | 0.0 | 0.0 | 0.00 | 0.00 | 0.00 | 63 | 1011.8 |
| 20260507080020 | 16 | 16 | 0.0 | 1.6 | 0.00 | 0.00 | 0.00 | 63 | 1012.1 |
| 20260507074526 | 16 | 16 | 0.0 | 3.2 | 0.00 | 0.00 | 0.00 | 65 | 1012.1 |
| 20260507073015 | 17 | 16 | 0.0 | 0.0 | 0.00 | 0.00 | 0.00 | 65 | 1012.2 |
| 20260507071512 | 17 | 16 | 0.0 | 0.0 | 0.00 | 0.00 | 0.00 | 63 | 1012.4 |
| 20260507070013 | 17 | 16 | 0.0 | 0.0 | 0.00 | 0.00 | 0.00 | 63 | 1012.6 |
| 20260507064511 | 17 | 16 | 0.0 | 0.0 | 0.00 | 0.00 | 0.00 | 65 | 1012.7 |
| 20260507063009 | 17 | 16 | 0.0 | 0.0 | 0.00 | 0.00 | 0.00 | 67 | 1012.9 |
| 20260507061509 | 17 | 16 | 0.0 | 0.0 | 0.00 | 0.00 | 0.00 | 68 | 1013.0 |
| 20260507060009 | 17 | 16 | 0.0 | 0.0 | 0.00 | 0.00 | 0.00 | 67 | 1013.1 |
| 20260507054510 | 17 | 16 | 0.0 | 3.2 | 0.00 | 0.00 | 0.00 | 68 | 1013.1 |
| 20260507053008 | 17 | 16 | 0.0 | 0.0 | 0.00 | 0.00 | 0.00 | 68 | 1013.3 |
| 20260507051508 | 18 | 16 | 0.0 | 0.0 | 0.00 | 0.00 | 0.00 | 68 | 1013.5 |
| 20260507050010 | 18 | 16 | 0.0 | 0.0 | 0.00 | 0.00 | 0.00 | 68 | 1013.5 |
| 20260507044507 | 18 | 16 | 0.0 | 1.6 | 0.00 | 0.00 | 0.00 | 68 | 1013.4 |
| 20260507043007 | 18 | 16 | 0.0 | 1.6 | 0.00 | 0.00 | 0.00 | 68 | 1013.3 |
| 20260507041505 | 18 | 16 | 0.0 | 3.2 | 0.00 | 0.00 | 0.00 | 68 | 1013.3 |
| 20260507040005 | 18 | 16 | 0.0 | 3.2 | 0.00 | 0.00 | 0.00 | 68 | 1013.2 |
| 20260507034504 | 18 | 16 | 0.0 | 4.8 | 0.00 | 0.00 | 0.00 | 68 | 1013.2 |
| 20260507033004 | 18 | 332 | 1.6 | 6.4 | 0.00 | 0.00 | 0.00 | 68 | 1013.2 |
| 20260507031503 | 18 | 330 | 1.6 | 6.4 | 0.00 | 0.00 | 0.00 | 68 | 1013.1 |
| 20260507030003 | 19 | 15 | 0.0 | 4.8 | 0.00 | 0.00 | 0.00 | 68 | 1013.0 |
| 20260507024502 | 19 | 348 | 0.0 | 6.4 | 0.00 | 0.00 | 0.00 | 68 | 1012.7 |
| 20260507023001 | 19 | 346 | 1.6 | 4.8 | 0.00 | 0.00 | 0.00 | 68 | 1012.6 |
| 20260507021500 | 20 | 321 | 1.6 | 8.0 | 0.00 | 0.00 | 0.00 | 68 | 1012.7 |
| 20260507020104 | 20 | 360 | 3.2 | 8.0 | 0.00 | 0.00 | 0.00 | 67 | 1012.7 |
| 20260507014609 | 20 | 321 | 4.8 | 12.9 | 0.00 | 0.00 | 0.00 | 67 | 1012.5 |
| 20260507013058 | 21 | 324 | 4.8 | 14.5 | 0.00 | 0.00 | 0.00 | 66 | 1012.5 |
| 20260507011604 | 21 | 316 | 6.4 | 16.1 | 0.00 | 0.00 | 0.00 | 65 | 1012.3 |
| 20260507010058 | 21 | 22 | 8.0 | 16.1 | 0.00 | 0.00 | 0.00 | 63 | 1012.3 |
| 20260507004557 | 22 | 301 | 6.4 | 14.5 | 0.00 | 0.00 | 0.00 | 65 | 1012.2 |
| 20260507003055 | 22 | 355 | 6.4 | 14.5 | 0.00 | 0.00 | 0.00 | 64 | 1012.2 |
| 20260507001614 | 22 | 13 | 3.2 | 9.7 | 0.00 | 0.00 | 0.00 | 66 | 1012.1 |
| 20260507000059 | -17 | 0.0 | 0.0 | 0.00 | 0.00 | 0.00 | 1012.1 | ||
| 20260506234549 | -17 | 0.0 | 0.0 | 0.00 | 0.00 | 0.00 | 1012.0 | ||
| 20260506233044 | -17 | 0.0 | 0.0 | 0.00 | 0.00 | 0.00 | 1012.0 | ||
| 20260506231540 | -17 | 0.0 | 0.0 | 0.00 | 0.00 | 0.00 | 1012.0 | ||
| 20260506230042 | -17 | 0.0 | 0.0 | 0.00 | 0.00 | 0.00 | 1012.0 | ||
| 20260506224538 | -17 | 0.0 | 0.0 | 0.00 | 0.00 | 0.00 | 1012.0 | ||
| 20260506223025 | 24 | 360 | 8.0 | 19.3 | 0.00 | 0.00 | 0.00 | 57 | 1012.1 |